sat.trackr.live / text

‹ back to catalog

LINUSS1

NORAD 55246 · 2022-144G

PAYLOAD ACTIVE UNKNOWN

§ Identity

Operator
Country
US
Launch date
2022-11-01
Launch site
AFETR
Launch vehicle
Mass (kg)
RCS (m²)

External: N2YO · Heavens-Above · Gunter

§ Orbital elements

Epoch: 2026-09-21T15:12:33.540192Z

Period
1,453.69 min
Inclination
5.6119°
Eccentricity
0.0008401
Mean motion
0.99057935 rev/d
Perigee alt
36,094.6 km
Apogee alt
36,166.1 km
Semi-major
42,508.5 km
B*
0.0000e+0
RAAN
63.3937°
Arg perigee
299.8307°
Mean anomaly
43.2320°
Rev number
1,261

§ Raw data

LINUSS11 55246U 22144G   26264.63372153 -.00000173  00000+0  00000+0 0  99952 55246   5.6119  63.3937 0008401 299.8307  43.2320  0.99057935 12619

JSON: /api/v1/satellites/55246 · /tle

For live sub-satellite position, see the globe view (requires WebGL).

§ Visibility from observer

Set your observer location to see the next 7 days of passes ≥ 10°. The values pass through the URL so the page stays shareable.

No JS? Fill the form by hand. The geolocation button needs JavaScript.